DECAYED

CZ-6A DEB, 60824 (Decayed)

Orbit data source: Space-Track

CZ-6A DEB, 60824 was space debris in LEO originally from a launch on Tue, 06 Aug 2024 UTC launched from the Taiyaun Space Center, China (TSC). Debris objects in space refer to the collection of defunct objects orbiting the Earth. Examples of debris include non-operational satellites, rocket bodies, and fragments generated from explosions, collisions, or faulty payload assembly.

Not visible in the next 10 days
Identifier
60824, 2024-140HB
Orbit
Decayed
Country
Flag of CNCN / PRC
Related business
Manufacturer
SAST
Mission
Decayed spacecraft
Bus & Motor
Unknown
Mass
Unknown
Launch date (UTC)
2024-08-06 (2 years ago)
Launch vehicle
Unknown
Launch site
Taiyaun Space Center, China (TSC)
Object type
Payload
Rocket body
Debris
Shape & HBR
Unknown shape, 0.2 m
Radar Cross Section
Medium (>0.1 m² and <1 m²)

Expand to show TLE details & history
Last TLE update: 7 months ago

TLE from 7 months ago
0 CZ-6A DEB
1 60824U 24140HB  25310.24319609  .15460606 -10765-5  38547-2 0  9998
2 60824  89.1409 303.3696 0014409 110.3482 249.9372 16.28877856 68064
Epoch: 2025-11-06T05:50Z
TLE epoch observation values (Epoch: 2025-11-06T05:50:12.142Z)
Latitude
Longitude
170.1147°
Altitude
202.166 km
Speed
7.783 km/s
True Right ascension
20h 13m 28s
True Declination
0° 00' 00"
Sunlit
Object was in daylight at epoch
Visualization orbit readout
Latitude
Unknown
Longitude
Unknown
Altitude
Unknown
Speed
Unknown
Apparent Right ascension
Unknown
Apparent Declination
Unknown
Sunlit
N/A
Visualization observer readout
Local Sidereal Time
07:22:02
Azimuth
Unknown
Elevation
Unknown
Doppler factor
Unknown
Orbital elements
Apogee altitude
201.682 km
Perigee altitude
182.748 km
Semi-major axis
6,570.352 km
Eccentricity
0.00144
Inclination
89.1409°
RAAN
303.3696°
Arg. of periapsis
110.3482°
True anomaly
249.7822°
Mean anomaly
249.9372°
Eccentric anomaly
249.85969°
Mean motion
4.07531 °/min
Orbital period
88.34 mins
BSTAR
0.0038547
Loading maneuver chart data...
Computing Atmospheric mass density...
Loading historical data...
Loading historical data...
Loading historical data...
Loading historical data...
Loading historical data...
Loading historical data...
Loading historical data...

Documentation

Showing up to 5 results
|